period_start,C,m1,H,J0,J1,J2,J3,J4,J5,JA,JB,JC,JD,JJ,JK,JN,#
2014-12-30 00:02:43,0.11,0.50,0.00,24.28,27.42,30.11,4.72,26.93,1017.61,2032.98,3233.34,3173.06,3442.48,349.77,346.32,3.85,0000 0000 0000 0000 000000
2014-12-30 00:07:44,0.10,0.51,0.00,24.29,27.42,30.13,4.73,26.91,1017.61,2032.99,3232.22,3172.10,3441.23,350.04,346.59,3.88,0000 0000 0000 0000 000000
2014-12-30 00:12:46,0.12,0.51,0.00,24.24,27.42,30.08,4.76,27.07,1017.61,2032.99,3230.56,3171.16,3440.27,350.15,346.76,3.91,0000 0000 0000 0000 000000
2014-12-30 00:17:47,0.10,0.52,0.00,24.22,27.42,30.08,4.79,27.06,1017.62,2032.99,3229.01,3170.10,3439.25,350.05,346.65,3.94,0000 0000 0000 0000 000000
2014-12-30 00:22:48,0.12,0.52,0.00,24.29,27.42,30.15,4.76,26.86,1017.61,2032.99,3227.55,3169.06,3438.11,350.04,346.54,3.97,0000 0000 0000 0000 000000
2014-12-30 00:27:50,0.10,0.52,0.00,24.22,27.42,30.15,4.77,26.97,1017.61,2032.99,3226.17,3168.06,3436.95,350.32,346.80,4.00,0000 0000 0000 0000 000000
2014-12-30 00:32:51,0.13,0.53,0.00,24.28,27.42,30.16,4.73,26.91,1017.61,2032.98,3224.68,3166.97,3435.69,349.89,346.47,4.03,0000 0000 0000 0000 000000
2014-12-30 00:37:52,0.10,0.53,0.00,24.30,27.42,30.19,4.76,26.89,1017.62,2032.98,3223.52,3165.95,3434.55,350.36,346.71,4.06,0000 0000 0000 0000 000000
2014-12-30 00:42:53,0.09,0.53,0.00,24.20,27.42,30.22,4.82,26.99,1017.63,2032.99,3222.12,3165.05,3433.60,350.35,347.10,4.09,0000 0000 0000 0000 000000
2014-12-30 00:47:54,0.10,0.53,0.00,24.26,27.42,30.19,4.71,26.92,1017.64,2032.99,3220.92,3164.24,3432.69,350.06,346.59,4.12,0000 0000 0000 0000 000000
2014-12-30 00:52:55,0.11,0.54,0.00,24.26,27.42,30.24,4.74,26.89,1017.64,2032.99,3219.51,3163.30,3431.69,350.08,346.59,4.15,0000 0000 0000 0000 000000
2014-12-30 00:57:56,0.10,0.54,0.00,24.26,27.42,30.22,4.79,27.03,1017.64,2032.97,3218.21,3162.27,3430.49,349.88,346.35,4.18,0000 0000 0000 0000 000000
2014-12-30 01:02:58,0.09,0.54,0.00,24.28,27.42,30.22,4.73,26.93,1017.69,2032.96,3216.96,3161.46,3429.56,349.77,346.46,4.20,0000 0000 0000 0000 000000
2014-12-30 01:07:59,0.11,0.55,0.00,24.28,27.42,30.13,4.77,27.09,1017.65,2032.99,3215.60,3160.57,3428.65,350.57,347.00,4.23,0000 0000 0000 0000 000000
2014-12-30 01:13:00,0.09,0.55,0.00,24.29,27.42,30.20,4.78,27.02,1017.74,2032.98,3214.33,3159.64,3427.59,350.40,346.97,4.26,0000 0000 0000 0000 000000
2014-12-30 01:18:02,0.26,0.56,0.00,24.28,27.42,30.20,4.73,27.07,1017.74,2032.95,3211.31,3157.64,3425.29,350.18,346.75,4.29,0000 0000 0000 0000 000000
2014-12-30 01:23:03,0.16,0.56,0.00,24.25,27.42,30.23,4.74,26.94,1017.73,2032.92,3208.78,3155.92,3423.56,350.49,347.13,4.32,0000 0000 0000 0000 000000
2014-12-30 01:28:04,0.14,0.57,0.00,24.28,27.42,30.24,4.77,27.07,1017.70,2032.92,3206.74,3154.72,3422.15,350.04,346.43,4.35,0000 0000 0000 0000 000000
2014-12-30 01:33:06,0.14,0.57,0.00,24.26,27.42,30.21,4.77,26.98,1017.81,2032.96,3204.95,3153.56,3420.92,350.12,346.82,4.38,0000 0000 0000 0000 000000
2014-12-30 01:38:07,0.15,0.57,0.00,24.33,27.42,30.18,4.76,26.94,1017.70,2032.95,3202.84,3152.20,3419.53,350.35,346.64,4.41,0000 0000 0000 0000 000000
2014-12-30 01:43:08,0.15,0.58,0.00,24.26,27.41,30.22,4.74,27.01,1017.66,2032.90,3200.72,3150.81,3418.01,349.79,346.35,4.44,0000 0000 0000 0000 000000
2014-12-30 01:48:09,0.09,0.58,0.00,24.23,27.41,30.27,4.76,26.96,1017.82,2032.88,3199.24,3149.88,3417.05,349.96,346.63,4.47,0000 0000 0000 0000 000000
2014-12-30 01:53:10,0.14,0.59,0.00,24.27,27.40,30.32,4.77,26.98,1017.92,2032.87,3197.70,3148.75,3415.91,349.87,346.47,4.50,0000 0000 0000 0000 000000
2014-12-30 01:58:12,0.13,0.59,0.00,24.25,27.40,30.31,4.78,26.96,1018.04,2032.80,3195.90,3147.58,3414.56,349.86,346.57,4.53,0000 0000 0000 0000 000000
2014-12-30 02:03:13,0.15,0.60,0.00,24.29,27.40,30.36,4.74,26.97,1018.06,2032.90,3194.05,3146.41,3413.52,349.83,346.53,4.56,0000 0000 0000 0000 000000
2014-12-30 02:08:14,0.11,0.60,0.00,24.27,27.40,30.31,4.78,27.01,1018.03,2032.87,3192.30,3145.24,3412.19,349.93,346.78,4.59,0000 0000 0000 0000 000000
2014-12-30 02:13:16,0.15,0.60,0.00,24.25,27.40,30.39,4.74,26.91,1018.02,2032.94,3190.36,3144.13,3411.08,350.06,346.77,4.61,0000 0000 0000 0000 000000
2014-12-30 02:18:17,0.14,0.61,0.00,24.22,27.40,30.38,4.79,26.99,1018.00,2032.96,3188.56,3142.89,3409.90,350.19,346.91,4.64,0000 0000 0000 0000 000000
2014-12-30 02:23:18,0.14,0.61,0.00,24.21,27.40,30.39,4.74,27.02,1017.96,2032.97,3186.93,3141.75,3408.68,349.73,346.46,4.67,0000 0000 0000 0000 000000
2014-12-30 02:28:19,0.12,0.62,0.00,24.27,27.40,30.37,4.75,27.02,1018.00,2032.95,3185.36,3140.62,3407.40,350.17,346.88,4.70,0000 0000 0000 0000 000000
2014-12-30 02:33:20,0.18,0.62,0.00,24.26,27.40,30.38,4.76,27.06,1018.01,2032.95,3183.47,3139.27,3405.74,349.99,346.75,4.73,0000 0000 0000 0000 000000
2014-12-30 02:38:22,0.24,0.63,0.00,24.25,27.40,30.36,4.79,27.04,1018.05,2032.88,3180.22,3137.09,3403.31,350.12,346.83,4.76,0000 0000 0000 0000 000000
2014-12-30 02:43:23,0.20,0.63,0.00,24.22,27.40,30.38,4.76,26.99,1018.03,2032.75,3177.05,3135.10,3401.04,349.99,346.72,4.79,0000 0000 0000 0000 000000
2014-12-30 02:48:24,0.22,0.64,0.00,24.25,27.40,30.40,4.71,26.94,1017.96,2032.78,3174.11,3133.33,3399.03,349.42,346.17,4.82,0000 0000 0000 0000 000000
2014-12-30 02:53:25,0.21,0.65,0.00,24.26,27.40,30.40,4.74,26.87,1017.91,2032.71,3171.15,3131.42,3397.01,350.37,346.83,4.85,0000 0000 0000 0000 000000
2014-12-30 02:58:27,0.20,0.65,0.00,24.22,27.40,30.39,4.79,26.95,1017.94,2032.63,3168.40,3129.64,3395.03,350.19,346.90,4.88,0000 0000 0000 0000 000000
2014-12-30 03:03:28,0.14,0.66,0.00,24.24,27.40,30.38,4.70,27.02,1018.00,2032.25,3165.63,3127.73,3392.96,349.53,346.25,4.91,0000 0000 0000 0000 000000
2014-12-30 03:08:30,0.19,0.66,0.00,24.21,27.40,30.38,4.68,26.97,1018.01,2032.27,3163.26,3126.10,3391.32,349.20,345.91,4.94,0000 0000 0000 0000 000000
2014-12-30 03:13:31,0.17,0.67,0.00,24.20,27.40,30.38,4.79,27.00,1018.05,2032.23,3160.91,3124.52,3389.79,350.25,346.84,4.97,0000 0000 0000 0000 000000
2014-12-30 03:18:32,0.19,0.67,0.00,24.23,27.40,30.40,4.80,27.13,1018.08,2032.21,3158.53,3122.87,3388.10,350.04,346.79,5.00,0000 0000 0000 0000 000000
2014-12-30 03:23:33,0.16,0.68,0.00,24.24,27.40,30.41,4.76,27.11,1018.08,2032.10,3156.06,3121.19,3386.32,349.90,346.45,5.03,0000 0000 0000 0000 000000
2014-12-30 03:28:34,0.22,0.68,0.00,24.24,27.40,30.42,4.74,27.05,1018.08,2032.08,3153.46,3119.41,3384.31,349.89,346.58,5.05,0000 0000 0000 0000 000000
2014-12-30 03:33:36,0.23,0.69,0.00,24.20,27.40,30.41,4.73,27.18,1018.09,2032.09,3150.59,3117.45,3382.32,349.45,346.09,5.08,0000 0000 0000 0000 000000
2014-12-30 03:38:37,0.29,0.70,0.00,24.19,27.40,30.42,4.77,27.02,1018.10,2032.09,3147.21,3115.16,3379.90,350.09,346.89,5.11,0000 0000 0000 0000 000000
2014-12-30 03:43:39,0.38,0.71,0.00,24.18,27.40,30.42,4.76,27.03,1018.18,2032.08,3142.62,3111.94,3376.48,350.26,347.18,5.14,0000 0000 0000 0000 000000
2014-12-30 03:48:40,0.34,0.72,0.00,24.22,27.40,30.41,4.74,27.06,1018.17,2032.05,3138.09,3108.88,3373.27,349.33,346.17,5.17,0000 0000 0000 0000 000000
2014-12-30 03:53:41,0.34,0.73,0.00,24.23,27.40,30.41,4.72,26.98,1018.27,2032.07,3134.04,3105.97,3370.18,349.25,346.06,5.20,0000 0000 0000 0000 000000
2014-12-30 03:58:43,0.31,0.74,0.00,24.24,27.40,30.42,4.78,27.17,1018.26,2032.04,3130.19,3103.22,3367.36,350.22,347.00,5.23,0000 0000 0000 0000 000000
2014-12-30 04:03:44,0.30,0.75,0.00,24.22,27.40,30.42,4.75,27.13,1018.23,2032.05,3126.11,3100.41,3364.44,350.00,346.62,5.26,0000 0000 0000 0000 000000
2014-12-30 04:08:45,0.27,0.76,0.00,24.15,27.40,30.43,4.80,27.10,1018.14,2032.07,3122.80,3098.21,3362.15,350.08,346.93,5.29,0000 0000 0000 0000 000000
2014-12-30 04:13:47,0.35,0.76,0.00,24.18,27.40,30.41,4.79,27.09,1018.24,2032.06,3118.80,3095.33,3359.02,349.93,346.80,5.32,0000 0000 0000 0000 000000
2014-12-30 04:18:48,0.46,0.78,0.00,24.20,27.40,30.43,4.82,27.07,1018.37,2032.04,3113.36,3091.53,3354.98,350.34,347.32,5.35,0000 0000 0000 0000 000000
2014-12-30 04:23:49,0.45,0.79,0.00,24.16,27.40,30.40,4.74,27.11,1018.50,2032.04,3107.75,3087.70,3351.01,349.97,346.63,5.38,0000 0000 0000 0000 000000
2014-12-30 04:28:50,0.42,0.80,0.00,24.20,27.40,30.39,4.77,26.94,1018.35,2032.03,3102.46,3084.03,3347.15,350.07,346.95,5.41,0000 0000 0000 0000 000000
2014-12-30 04:33:51,0.42,0.82,0.00,24.22,27.40,30.41,4.73,27.13,1018.26,2032.04,3097.43,3080.49,3343.39,349.74,346.57,5.43,0000 0000 0000 0000 000000
2014-12-30 04:38:52,0.35,0.83,0.00,24.20,27.40,30.41,4.70,27.12,1018.43,2032.02,3092.90,3077.33,3340.01,349.35,346.26,5.46,0000 0000 0000 0000 000000
2014-12-30 04:43:53,0.29,0.84,0.00,24.15,27.40,30.42,4.70,27.13,1018.53,2032.02,3088.96,3074.62,3337.26,350.13,347.02,5.49,0000 0000 0000 0000 000000
2014-12-30 04:48:55,0.32,0.85,0.00,24.16,27.42,30.39,4.75,27.05,1018.51,2032.02,3085.15,3072.05,3334.54,349.90,346.89,5.52,0000 0000 0000 0000 000000
2014-12-30 04:53:56,0.33,0.86,0.00,24.17,27.42,30.40,4.72,27.35,1018.56,2032.02,3080.92,3069.31,3331.55,349.42,346.40,5.55,0000 0000 0000 0000 000000
2014-12-30 04:58:57,0.31,0.87,0.00,24.17,27.42,30.41,4.77,27.13,1018.57,2032.03,3077.19,3066.60,3328.69,350.48,347.53,5.58,0000 0000 0000 0000 000000
2014-12-30 05:03:58,0.39,0.87,0.00,24.18,27.42,30.43,4.74,27.19,1018.57,2032.00,3072.92,3063.56,3325.49,349.57,346.63,5.61,0000 0000 0000 0000 000000
2014-12-30 05:09:00,0.46,0.89,0.00,24.17,27.42,30.39,4.71,27.05,1018.57,2032.01,3067.35,3059.57,3321.30,349.86,347.02,5.64,0000 0000 0000 0000 000000
2014-12-30 05:14:01,0.43,0.90,0.00,24.14,27.42,30.40,4.83,27.33,1018.57,2032.00,3062.04,3055.91,3317.40,350.58,347.47,5.67,0000 0000 0000 0000 000000
2014-12-30 05:19:02,0.36,0.91,0.00,24.11,27.42,30.39,4.72,27.17,1018.57,2032.00,3057.64,3052.82,3314.07,349.84,346.90,5.70,0000 0000 0000 0000 000000
2014-12-30 05:24:03,0.37,0.92,0.00,24.13,27.42,30.44,4.78,27.12,1018.58,2032.00,3053.22,3049.70,3310.82,350.17,347.19,5.73,0000 0000 0000 0000 000000
2014-12-30 05:29:05,0.39,0.94,0.00,24.12,27.43,30.42,4.74,26.96,1018.58,2032.00,3048.61,3046.51,3307.46,349.94,346.60,5.76,0000 0000 0000 0000 000000
2014-12-30 05:34:06,0.43,0.95,0.00,24.15,27.44,30.44,4.83,27.13,1018.58,2032.00,3043.47,3042.93,3303.71,350.09,347.21,5.79,0000 0000 0000 0000 000000
2014-12-30 05:39:07,0.45,0.96,0.00,24.12,27.44,30.44,4.81,27.36,1018.61,2031.99,3038.13,3039.25,3299.84,350.12,347.17,5.82,0000 0000 0000 0000 000000
2014-12-30 05:44:09,0.45,0.98,0.00,24.13,27.45,30.41,4.76,27.02,1018.63,2031.99,3032.64,3035.34,3295.78,349.81,346.85,5.84,0000 0000 0000 0000 000000
2014-12-30 05:49:10,0.47,0.99,0.00,24.12,27.45,30.44,4.75,27.02,1018.71,2031.99,3027.19,3031.48,3291.67,350.12,347.04,5.87,0000 0000 0000 0000 000000
2014-12-30 05:54:11,0.42,1.00,0.00,24.14,27.45,30.41,4.73,27.18,1018.84,2031.99,3022.09,3027.84,3287.88,349.42,346.58,5.90,0000 0000 0000 0000 000000
2014-12-30 05:59:13,0.37,1.01,0.00,24.14,27.45,30.43,4.76,27.05,1018.98,2031.99,3017.61,3024.70,3284.48,349.26,346.52,5.93,0000 0000 0000 0000 000000
2014-12-30 06:04:14,0.37,1.03,0.00,24.15,27.45,30.44,4.71,27.12,1019.05,2031.98,3013.17,3021.61,3281.25,350.24,347.34,5.96,0000 0000 0000 0000 000000
2014-12-30 06:09:15,0.39,1.04,0.00,24.14,27.45,30.41,4.80,26.98,1019.07,2031.98,3008.75,3018.42,3277.87,350.46,347.41,5.99,0000 0000 0000 0000 000000
2014-12-30 06:14:16,0.41,1.05,0.00,24.11,27.46,30.40,4.74,27.02,1019.08,2031.97,3004.18,3015.03,3274.22,350.06,347.24,6.02,0000 0000 0000 0000 000000
2014-12-30 06:19:18,0.43,1.06,0.00,24.11,27.47,30.39,4.75,27.04,1019.07,2031.95,2999.10,3011.45,3270.46,350.02,347.25,6.05,0000 0000 0000 0000 000000
2014-12-30 06:24:19,0.45,1.07,0.00,24.06,27.47,30.44,4.81,27.05,1019.08,2031.93,2993.86,3007.82,3266.56,349.84,347.13,6.08,0000 0000 0000 0000 000000
2014-12-30 06:29:20,0.44,1.09,0.00,24.09,27.47,30.40,4.74,27.10,1019.11,2031.89,2988.62,3004.19,3262.76,349.46,346.67,6.11,0000 0000 0000 0000 000000
2014-12-30 06:34:21,0.43,1.10,0.00,24.07,27.47,30.41,4.72,27.12,1019.34,2031.86,2983.40,3000.50,3258.99,350.16,347.49,6.14,0000 0000 0000 0000 000000
2014-12-30 06:39:23,0.41,1.11,0.00,24.10,27.47,30.40,4.74,27.10,1019.43,2031.79,2978.43,2996.99,3255.27,350.37,347.73,6.17,0000 0000 0000 0000 000000
2014-12-30 06:44:24,0.41,1.12,0.00,24.07,27.47,30.44,4.73,27.13,1019.53,2031.68,2973.43,2993.48,3251.58,349.66,347.00,6.20,0000 0000 0000 0000 000000
2014-12-30 06:49:25,0.29,1.13,0.00,24.08,27.47,30.43,4.74,27.16,1019.54,2031.90,2969.96,2991.12,3249.15,349.94,347.17,6.23,0000 0000 0000 0000 000000
2014-12-30 06:54:26,0.28,1.14,0.00,24.10,27.47,30.39,4.79,27.19,1019.54,2031.83,2966.91,2988.91,3246.79,349.60,346.88,6.26,0000 0000 0000 0000 000000
2014-12-30 06:59:28,0.27,1.15,0.00,24.10,27.48,30.41,4.79,27.25,1019.55,2031.70,2963.40,2986.39,3244.21,350.10,347.41,6.28,0000 0000 0000 0000 000000
2014-12-30 07:04:29,0.32,1.16,0.00,24.09,27.49,30.47,4.81,27.13,1019.55,2031.53,2959.61,2983.70,3241.27,349.74,347.07,6.31,0000 0000 0000 0000 000000
2014-12-30 07:09:30,0.36,1.17,0.00,24.09,27.49,30.46,4.79,27.06,1019.55,2031.44,2955.43,2980.69,3238.03,349.93,347.24,6.34,0000 0000 0000 0000 000000
2014-12-30 07:14:32,0.28,1.18,0.00,24.08,27.50,30.45,4.79,27.04,1019.56,2031.20,2951.73,2977.99,3235.18,350.12,347.47,6.37,0000 0000 0000 0000 000000
2014-12-30 07:19:33,0.29,1.19,0.00,24.04,27.50,30.47,4.77,26.97,1019.57,2031.17,2948.23,2975.51,3232.56,350.15,347.52,6.40,0000 0000 0000 0000 000000
2014-12-30 07:24:34,0.21,1.19,0.00,24.04,27.50,30.46,4.85,27.12,1019.57,2031.09,2945.44,2973.55,3230.48,350.63,348.07,6.43,0000 0000 0000 0000 000000
2014-12-30 07:29:35,0.24,1.20,0.00,24.06,27.50,30.45,4.84,27.13,1019.59,2031.08,2942.92,2971.67,3228.59,350.04,347.65,6.46,0000 0000 0000 0000 000000
2014-12-30 07:34:37,0.15,1.21,0.00,24.07,27.50,30.39,4.78,27.09,1019.61,2031.09,2941.03,2970.28,3226.97,350.08,347.53,6.49,0000 0000 0000 0000 000000
2014-12-30 07:39:38,0.21,1.21,0.00,24.04,27.50,30.43,4.76,27.02,1019.59,2031.04,2938.56,2968.55,3225.21,350.19,347.68,6.52,0000 0000 0000 0000 000000
2014-12-30 07:44:39,0.20,1.22,0.00,24.07,27.50,30.41,4.81,27.11,1019.61,2031.03,2936.25,2966.86,3223.43,350.06,347.51,6.55,0000 0000 0000 0000 000000
2014-12-30 07:49:41,0.26,1.23,0.00,24.05,27.50,30.45,4.78,27.19,1019.60,2031.07,2933.35,2965.04,3221.52,350.29,347.67,6.58,0000 0000 0000 0000 000000
2014-12-30 07:54:42,0.28,1.23,0.00,24.07,27.50,30.43,4.72,27.18,1019.73,2031.06,2929.98,2962.77,3219.24,350.11,347.60,6.61,0000 0000 0000 0000 000000
2014-12-30 07:59:43,0.22,1.24,0.00,24.05,27.50,30.44,4.75,27.20,1019.99,2031.06,2927.34,2960.77,3217.17,349.56,347.17,6.64,0000 0000 0000 0000 000000
2014-12-30 08:04:44,0.26,1.25,0.00,24.06,27.50,30.43,4.78,27.12,1019.98,2031.03,2924.64,2958.87,3215.03,349.77,347.46,6.66,0000 0000 0000 0000 000000
2014-12-30 08:09:45,0.27,1.26,0.00,24.05,27.50,30.42,4.76,27.15,1019.98,2031.03,2921.57,2956.73,3212.83,349.67,347.34,6.69,0000 0000 0000 0000 000000
2014-12-30 08:14:47,0.25,1.26,0.00,24.06,27.50,30.39,4.77,27.02,1020.03,2031.03,2918.72,2954.70,3210.66,349.76,347.54,6.72,0000 0000 0000 0000 000000
2014-12-30 08:19:48,0.19,1.27,0.00,24.04,27.50,30.41,4.77,27.02,1020.03,2031.00,2916.46,2953.01,3208.79,349.84,347.61,6.75,0000 0000 0000 0000 000000
2014-12-30 08:24:49,0.17,1.27,0.00,24.01,27.50,30.45,4.76,27.07,1020.03,2031.01,2914.56,2951.65,3207.19,349.72,347.46,6.78,0000 0000 0000 0000 000000
2014-12-30 08:29:50,0.19,1.28,0.00,23.98,27.51,30.43,4.77,27.04,1020.04,2031.00,2912.29,2950.03,3205.56,350.16,347.69,6.81,0000 0000 0000 0000 000000
2014-12-30 08:34:52,0.21,1.29,0.00,24.00,27.52,30.43,4.78,27.17,1020.04,2031.00,2910.00,2948.53,3203.87,350.11,347.79,6.84,0000 0000 0000 0000 000000
2014-12-30 08:39:53,0.20,1.29,0.00,24.00,27.51,30.42,4.76,27.16,1020.04,2031.00,2907.70,2946.90,3202.21,350.46,348.21,6.87,0000 0000 0000 0000 000000
2014-12-30 08:44:54,0.18,1.30,0.00,24.00,27.52,30.42,4.80,27.06,1020.05,2031.00,2905.55,2945.47,3200.63,349.97,347.80,6.90,0000 0000 0000 0000 000000
2014-12-30 08:49:56,0.19,1.30,0.00,24.02,27.52,30.41,4.77,27.06,1020.04,2031.00,2903.26,2943.96,3199.13,349.66,347.41,6.93,0000 0000 0000 0000 000000
2014-12-30 08:54:57,0.20,1.31,0.00,24.01,27.52,30.37,4.78,27.10,1020.05,2031.00,2900.77,2942.42,3197.63,349.94,347.62,6.96,0000 0000 0000 0000 000000
2014-12-30 08:59:58,0.18,1.32,0.00,23.98,27.52,30.40,4.79,27.07,1020.05,2031.00,2898.47,2940.86,3196.03,350.19,347.87,6.99,0000 0000 0000 0000 000000
2014-12-30 09:05:00,0.18,1.32,0.00,23.98,27.52,30.40,4.82,27.23,1020.04,2031.00,2896.49,2939.49,3194.57,350.09,347.71,7.02,0000 0000 0000 0000 000000
2014-12-30 09:10:01,0.18,1.33,0.00,23.95,27.52,30.40,4.77,27.07,1020.04,2031.00,2894.53,2937.99,3192.87,350.12,347.99,7.05,0000 0000 0000 0000 000000
2014-12-30 09:15:02,0.18,1.33,0.00,23.95,27.52,30.37,4.74,27.24,1020.06,2031.00,2892.43,2936.56,3191.40,349.74,347.50,7.08,0000 0000 0000 0000 000000
2014-12-30 09:20:03,0.18,1.34,0.00,23.95,27.52,30.40,4.76,27.21,1020.07,2031.00,2890.55,2935.09,3189.66,349.67,347.49,7.10,0000 0000 0000 0000 000000
2014-12-30 09:25:05,0.19,1.34,0.00,23.99,27.52,30.39,4.74,27.26,1020.07,2031.00,2888.51,2933.57,3187.99,349.78,347.40,7.13,0000 0000 0000 0000 000000
2014-12-30 09:30:06,0.17,1.35,0.00,23.98,27.52,30.37,4.79,27.10,1020.09,2031.00,2886.40,2932.23,3186.53,349.93,347.63,7.16,0000 0000 0000 0000 000000
2014-12-30 09:35:07,0.17,1.35,0.00,23.99,27.53,30.36,4.79,27.20,1020.14,2031.00,2884.41,2930.82,3185.12,350.40,348.01,7.19,0000 0000 0000 0000 000000
2014-12-30 09:40:09,0.19,1.36,0.00,23.99,27.54,30.41,4.88,27.32,1020.22,2031.00,2882.33,2929.40,3183.62,350.32,348.02,7.22,0000 0000 0000 0000 000000
2014-12-30 09:45:10,0.17,1.36,0.00,23.99,27.54,30.39,4.76,27.02,1020.24,2030.99,2880.34,2927.97,3182.00,350.03,347.79,7.25,0000 0000 0000 0000 000000
2014-12-30 09:50:11,0.18,1.37,0.00,23.96,27.55,30.40,4.72,27.09,1020.26,2030.99,2878.55,2926.59,3180.54,349.68,347.57,7.28,0000 0000 0000 0000 000000
2014-12-30 09:55:13,0.17,1.38,0.00,23.96,27.55,30.42,4.82,27.15,1020.28,2030.98,2876.54,2925.18,3179.02,350.13,348.01,7.31,0000 0000 0000 0000 000000
2014-12-30 10:00:14,0.19,1.38,0.00,23.94,27.55,30.44,4.80,27.23,1020.39,2030.99,2874.51,2923.70,3177.48,350.17,347.96,7.34,0000 0000 0000 0000 000000
2014-12-30 10:05:15,0.16,1.39,0.00,23.97,27.55,30.42,4.79,27.10,1020.35,2030.97,2872.62,2922.30,3175.98,349.99,347.92,7.37,0000 0000 0000 0000 000000
2014-12-30 10:10:16,0.18,1.39,0.00,23.95,27.55,30.40,4.73,27.10,1020.43,2030.98,2870.69,2920.92,3174.50,349.98,347.80,7.40,0000 0000 0000 0000 000000
2014-12-30 10:15:18,0.19,1.40,0.00,23.96,27.55,30.34,4.73,27.26,1020.47,2030.98,2868.45,2919.46,3172.95,349.49,347.38,7.43,0000 0000 0000 0000 000000
2014-12-30 10:20:19,0.17,1.40,0.00,23.97,27.55,30.37,4.80,27.19,1020.34,2030.99,2866.47,2917.96,3171.51,350.27,348.14,7.46,0000 0000 0000 0000 000000
2014-12-30 10:25:21,0.25,1.41,0.00,23.99,27.55,30.40,4.72,27.15,1020.34,2030.99,2863.81,2916.15,3169.65,349.13,347.00,7.49,0000 0000 0000 0000 000000
2014-12-30 10:30:22,0.27,1.42,0.00,23.94,27.55,30.39,4.77,27.14,1020.48,2030.99,2860.92,2914.04,3167.34,349.93,347.81,7.51,0000 0000 0000 0000 000000
2014-12-30 10:35:24,0.29,1.43,0.00,23.94,27.55,30.38,4.79,27.27,1020.43,2030.98,2857.81,2911.79,3164.98,350.10,347.98,7.54,0000 0000 0000 0000 000000
2014-12-30 10:40:25,0.34,1.44,0.00,23.95,27.55,30.39,4.76,27.24,1020.52,2030.98,2854.28,2909.11,3162.17,349.76,347.64,7.57,0000 0000 0000 0000 000000
2014-12-30 10:45:26,0.21,1.44,0.00,23.95,27.55,30.42,4.77,27.18,1020.52,2030.98,2851.75,2907.18,3160.04,349.84,348.03,7.60,0000 0000 0000 0000 000000
2014-12-30 10:50:27,0.19,1.45,0.00,23.94,27.56,30.40,4.78,27.18,1020.52,2030.97,2849.65,2905.62,3158.39,350.51,348.43,7.63,0000 0000 0000 0000 000000
2014-12-30 10:55:28,0.22,1.45,0.00,23.96,27.57,30.41,4.72,27.16,1020.52,2030.97,2847.43,2904.04,3156.74,349.37,347.27,7.66,0000 0000 0000 0000 000000
2014-12-30 11:00:30,0.26,1.46,0.00,23.97,27.57,30.42,4.78,27.20,1020.52,2030.97,2844.63,2902.02,3154.61,349.82,347.69,7.69,0000 0000 0000 0000 000000
2014-12-30 11:05:31,0.23,1.47,0.00,23.96,27.57,30.42,4.77,27.01,1020.52,2030.94,2842.00,2900.05,3152.50,349.20,347.32,7.72,0000 0000 0000 0000 000000
2014-12-30 11:10:32,0.25,1.48,0.00,23.92,27.57,30.39,4.74,26.96,1020.52,2030.93,2839.41,2898.13,3150.42,350.28,348.18,7.75,0000 0000 0000 0000 000000
2014-12-30 11:15:34,0.27,1.48,0.00,23.92,27.57,30.39,4.78,27.25,1020.52,2030.89,2836.49,2895.99,3148.11,349.97,347.98,7.78,0000 0000 0000 0000 000000
2014-12-30 11:20:35,0.19,1.49,0.00,23.92,27.57,30.41,4.81,27.11,1020.52,2030.89,2834.10,2894.26,3146.27,350.03,347.97,7.81,0000 0000 0000 0000 000000
2014-12-30 11:25:36,0.18,1.50,0.00,23.93,27.57,30.40,4.80,27.20,1020.52,2030.91,2832.17,2892.81,3144.73,349.80,347.73,7.84,0000 0000 0000 0000 000000
2014-12-30 11:30:37,0.17,1.50,0.00,23.92,27.57,30.40,4.76,27.17,1020.54,2030.91,2830.38,2891.54,3143.40,350.50,348.44,7.87,0000 0000 0000 0000 000000
2014-12-30 11:35:39,0.15,1.51,0.00,23.94,27.57,30.36,4.75,27.08,1020.53,2030.85,2828.59,2890.29,3141.96,350.03,347.87,7.90,0000 0000 0000 0000 000000
2014-12-30 11:40:40,0.11,1.51,0.00,23.95,27.57,30.39,4.79,27.27,1020.55,2030.57,2826.77,2888.89,3140.55,349.90,347.95,7.92,0000 0000 0000 0000 000000
2014-12-30 11:45:42,0.17,1.51,0.00,23.94,27.57,30.39,4.83,27.20,1020.53,2030.55,2825.10,2887.68,3139.29,349.68,347.61,7.95,0000 0000 0000 0000 000000
2014-12-30 11:50:43,0.20,1.52,0.00,23.92,27.57,30.38,4.78,27.26,1020.55,2030.41,2822.91,2886.07,3137.48,350.43,348.46,7.98,0000 0000 0000 0000 000000
2014-12-30 11:55:44,0.50,1.53,0.00,23.91,27.57,30.38,4.80,27.14,1020.53,2030.36,2818.09,2882.65,3133.93,350.11,347.85,8.01,0000 0000 0000 0000 000000
2014-12-30 12:00:45,0.57,1.55,0.00,23.90,27.57,30.40,4.78,27.28,1020.53,2030.44,2812.21,2878.64,3129.49,349.89,348.08,8.04,0000 0000 0000 0000 000000
2014-12-30 12:05:46,0.53,1.56,0.00,23.88,27.57,30.37,4.75,27.18,1020.53,2030.37,2806.16,2874.41,3124.85,350.13,348.12,8.07,0000 0000 0000 0000 000000
2014-12-30 12:10:48,0.54,1.58,0.00,23.91,27.57,30.40,4.71,27.27,1020.52,2030.25,2800.20,2870.23,3120.35,349.39,347.35,8.10,0000 0000 0000 0000 000000
2014-12-30 12:15:49,0.51,1.59,0.00,23.90,27.57,30.38,4.76,27.09,1020.53,2030.21,2794.63,2866.29,3116.09,349.63,347.79,8.13,0000 0000 0000 0000 000000
2014-12-30 12:20:50,0.54,1.61,0.00,23.95,27.57,30.37,4.79,27.23,1020.52,2030.13,2788.92,2862.26,3111.77,349.73,347.68,8.16,0000 0000 0000 0000 000000
2014-12-30 12:25:51,0.51,1.63,0.00,23.92,27.57,30.34,4.77,27.23,1020.52,2030.15,2783.41,2858.43,3107.59,349.86,347.79,8.19,0000 0000 0000 0000 000000
2014-12-30 12:30:52,0.55,1.64,0.93,23.94,27.57,30.34,4.84,27.18,1020.53,2030.20,2777.85,2854.52,3103.35,350.28,348.19,8.22,0000 0000 0000 0000 000000
2014-12-30 12:35:54,0.39,1.65,1.00,23.90,27.57,30.36,4.78,27.10,1020.53,2030.09,2773.17,2851.12,3099.69,350.35,348.32,8.25,0000 0000 0000 0000 000000
2014-12-30 12:40:55,0.32,1.67,1.00,23.89,27.57,30.38,4.74,27.07,1020.53,2030.05,2769.55,2848.54,3096.89,349.99,347.76,8.28,0000 0000 0000 0000 000000
2014-12-30 12:45:56,0.37,1.67,1.00,23.88,27.57,30.41,4.74,27.13,1020.53,2030.08,2765.89,2845.93,3094.23,349.67,347.59,8.31,0000 0000 0000 0000 000000
2014-12-30 12:50:57,0.44,1.69,1.00,23.88,27.57,30.39,4.83,27.33,1020.52,2030.12,2761.41,2842.74,3090.95,350.98,348.96,8.33,0000 0000 0000 0000 000000
2014-12-30 12:55:58,0.39,1.70,1.00,23.92,27.57,30.41,4.75,27.16,1020.53,2030.09,2757.25,2839.71,3087.73,349.38,347.33,8.36,0000 0000 0000 0000 000000
2014-12-30 13:01:00,0.38,1.71,0.03,23.90,27.58,30.40,4.75,27.30,1020.52,2030.05,2753.27,2836.81,3084.64,349.73,347.62,8.39,0000 0000 0000 0000 000000
2014-12-30 13:06:01,0.30,1.72,0.00,23.89,27.58,30.40,4.81,27.20,1020.52,2030.03,2750.05,2834.33,3081.91,350.51,348.63,8.42,0000 0000 0000 0000 000000